Simultaneous Nadir Overpasses (SNOs) Predictions

Prediction of SNOs between AQUA and NOAA-19 Satellite Orbit:

Table of predicted SNOs for the next 14.0 days since TLE Epoch: 5/18/2012
Index Date (AQUA) Time (AQUA) AQUA Lat,Lon Date (NOAA-19) Time (NOAA-19) NOAA-19 Lat,Lon Distance(km) Time Diff (sec)
1 05/20/2012 07:26:24 46.02, -79.12 05/20/2012 07:25:28 46.00, -79.04 7.02 56
2 05/20/2012 08:13:09 -55.73, 92.79 05/20/2012 08:13:45 -55.73, 92.81 1.56 36
3 05/22/2012 12:10:18 47.24,-149.73 05/22/2012 12:09:49 47.25,-149.70 1.74 29
4 05/22/2012 12:56:45 -57.98, 22.99 05/22/2012 12:57:48 -57.98, 23.00 0.97 63
5 05/24/2012 16:53:51 49.69, 140.19 05/24/2012 16:53:49 49.68, 140.17 1.18 2
6 05/24/2012 17:32:07 -81.79, 37.87 05/24/2012 17:33:20 -81.11, 37.35 76.63 73
7 05/26/2012 20:49:43 -46.04, -99.96 05/26/2012 20:48:40 -46.02, -99.82 11.04 63
8 05/26/2012 21:36:56 53.75, 70.96 05/26/2012 21:37:20 53.76, 70.98 1.41 24
9 05/29/2012 01:33:57 -46.01,-171.03 05/29/2012 01:33:23 -46.00,-171.00 2.63 34
10 05/29/2012 02:20:21 56.60, 1.38 05/29/2012 02:21:12 56.60, 1.41 1.88 51
11 05/31/2012 06:17:15 -49.27, 119.18 05/31/2012 06:17:08 -49.27, 119.20 1.44 7




NCC Satellite Simultaneous Nadir Overpasses (SNOs) Prediction Service
